APRIZESAT 2 1 28366U 04025A 25354.94637565 .00000120 00000+0 50162-4 0 9990 2 28366 98.0818 166.1922 0106889 68.5035 292.7510 14.37933214126021 SAUDICOMSAT 1 1 28369U 04025D 25354.54049744 .00000281 00000+0 75931-4 0 9994 2 28369 98.5775 354.8626 0031625 208.9373 151.0071 14.55284337138148 SAUDICOMSAT 2 1 28370U 04025E 25353.97602262 .00000242 00000+0 73929-4 0 9994 2 28370 98.6663 356.1481 0056657 82.5324 278.2302 14.49818051134138 APRIZESAT 1 1 28372U 04025G 25354.91943402 .00000243 00000+0 72106-4 0 9992 2 28372 98.6313 355.7886 0044283 338.6183 21.3160 14.51638821136045 NANOSAT-1 1 28493U 04049B 25354.80980645 .00000907 00000+0 12828-3 0 9991 2 28493 98.2024 122.4666 0004815 135.0182 225.1420 14.79626138129069 SAUDICOMSAT 7 1 31119U 07012C 25354.90074570 .00000611 00000+0 11900-3 0 9997 2 31119 98.3552 320.6595 0056839 36.2961 324.2076 14.65789510996315 SAUDICOMSAT 6 1 31121U 07012E 25354.78812925 .00000345 00000+0 76086-4 0 9991 2 31121 98.3861 314.2802 0072452 161.2936 199.0953 14.62259834994106 SAUDICOMSAT 5 1 31124U 07012H 25351.43984044 .00000839 00000+0 15390-3 0 9993 2 31124 98.3260 317.9245 0047281 339.0884 20.8385 14.67812589996921 SAUDICOMSAT 3 1 31125U 07012J 25354.84162216 .00000714 00000+0 12585-3 0 9996 2 31125 98.2924 321.9566 0038053 255.6301 104.0679 14.70304068998614 SAUDICOMSAT 4 1 31127U 07012L 25354.88503790 .00000458 00000+0 94097-4 0 9992 2 31127 98.3755 319.1049 0065045 95.3305 265.5323 14.64193860995286 APRIZESAT 4 1 35684U 09041D 25354.74570495 .00000648 00000+0 84548-4 0 9990 2 35684 98.1632 61.3867 0043632 178.5338 181.6011 14.83509119884909 APRIZESAT 3 1 35686U 09041F 25354.90275266 .00000858 00000+0 80812-4 0 9991 2 35686 98.1798 134.9652 0061549 296.2897 63.2007 14.95447872889723 S-NET D 1 43186U 18014G 25354.68296480 .00004395 00000+0 24267-3 0 9992 2 43186 97.5494 255.7074 0006901 280.5997 79.4457 15.14439426431720 S-NET B 1 43187U 18014H 25354.69114834 .00004111 00000+0 22737-3 0 9992 2 43187 97.5498 255.6958 0007508 274.7981 85.2393 15.14414656431729 S-NET A 1 43188U 18014J 25354.68263960 .00004437 00000+0 24489-3 0 9994 2 43188 97.5506 255.8653 0007399 275.1209 84.9178 15.14445920431725 S-NET C 1 43189U 18014K 25354.95843482 .00004309 00000+0 23806-3 0 9998 2 43189 97.5524 256.1857 0008796 265.0306 94.9922 15.14412564430314 SALSAT 1 46495U 20068K 25354.92279303 .00006142 00000+0 23848-3 0 9998 2 46495 97.8783 342.6369 0009624 197.0373 163.0542 15.26450855288130 OOV-CUBE (TUBSAT-30) 1 60240U 24128F 25354.87075153 .00002053 00000+0 16790-3 0 9999 2 60240 61.9946 126.8799 0058267 95.9014 264.8722 15.01654831 79323